Location: Kawakawa
(35.3830°S, 174.0670°E)
Time: 04:35:53
(UTC+13:00)

A-11 Canister half - Pass Details

Date: 07 December 2019
Orbit: 1525 x 1684 km, 47.3° (Epoch: 19 January)

Event Time Altitude Azimuth Distance (km) Brightness Sun altitude
Rises 00:36:59 0° 243° (WSW) 4,702 12.0 -31.4°
Reaches altitude 10° 00:40:14 10° 237° (WSW) 3,729 11.5 -31.6°
Maximum altitude 00:49:14 46° 164° (SSE) 2,013 9.8 -31.8°
Drops below altitude 10° 00:58:27 10° 93° (E) 3,824 11.0 -32.0°
Sets 01:01:49 0° 86° (E) 4,829 11.5 -32.0°
